ギブス彗星

406P/Gibbs (2014)

English version
Home page
Updated on December 11, 2020

---------------------------------------------------------------------

・ プロフィール

・ 軌道要素

Epoch 2014 Jan. 23.0 TT = JDT 2456680.5                                         
T 2014 Jan. 14.88118 TT                                 Rudenko                 
q   1.4667193            (2000.0)            P               Q                  
n   0.15456046     Peri.  353.20862     +0.99939774     -0.03449245             
a   3.4387752      Node     8.77074     +0.03289396     +0.90681902             
e   0.5734762      Incl.    1.42699     +0.01105151     +0.42010659             
P   6.38                                                                        
From 210 observations 2007 Sept. 10-2020 Oct. 20, mean residual 0".7.           

・ 光度変化

        m1 = 17.5 + 5 logΔ + 10.0 log r

---------------------------------------------------------------------

軌道要素はM.P.E.C. 2020-U269に掲載されたものです。
光度グラフはComet for Windowsで作成したものです。

---------------------------------------------------------------------

Copyright(C) Seiichi Yoshida (comet@aerith.net). All rights reserved.